H1 CPF 2 NER 2025 9 14 9 257 01 glonass140 H2 1903001 9140 44299 2025 9 14 0 0 0 2025 9 17 23 45 0 900 1 1 0 0 0 1 H9 10 0 60932 0.00000 0 -14977316.398 2960282.241 -20405067.622 10 0 60932 900.00000 0 -17168831.247 1929735.705 -18735561.061 10 0 60932 1800.00000 0 -19218506.611 1148606.331 -16701203.777 10 0 60932 2700.00000 0 -21063180.866 605972.248 -14341658.409 10 0 60932 3600.00000 0 -22645033.838 279333.513 -11702920.113 10 0 60932 4500.00000 0 -23913910.350 135809.749 -8836411.092 10 0 60932 5400.00000 0 -24829337.831 133781.514 -5797968.809 10 0 60932 6300.00000 0 -25362153.334 224904.103 -2646748.467 10 0 60932 7200.00000 0 -25495671.986 356406.812 555937.829 10 0 60932 8100.00000 0 -25226348.488 473578.656 3747821.621 10 0 60932 9000.00000 0 -24563904.852 522333.934 6866894.075 10 0 60932 9900.00000 0 -23530920.285 451747.950 9852612.977 10 0 60932 10800.00000 0 -22161901.750 216454.963 12647076.872 10 0 60932 11700.00000 0 -20501875.518 -221193.334 15196143.513 10 0 60932 12600.00000 0 -18604559.874 -889299.927 17450471.231 10 0 60932 13500.00000 0 -16530196.225 -1805002.004 19366463.821 10 0 60932 14400.00000 0 -14343129.589 -2973517.382 20907101.742 10 0 60932 15300.00000 0 -12109239.306 -4387697.623 22042644.846 10 0 60932 16200.00000 0 -9893326.360 -6028106.523 22751194.506 10 0 60932 17100.00000 0 -7756564.917 -7863620.943 23019105.663 10 0 60932 18000.00000 0 -5754122.591 -9852529.485 22841242.004 10 0 60932 18900.00000 0 -3933046.631 -11944084.171 22221070.243 10 0 60932 19800.00000 0 -2330502.047 -14080441.811 21170592.134 10 0 60932 20700.00000 0 -972433.272 -16198915.751 19710115.529 10 0 60932 21600.00000 0 127296.522 -18234445.971 17867868.492 10 0 60932 22500.00000 0 967253.744 -20122186.320 15679463.056 10 0 60932 23400.00000 0 1558256.668 -21800102.547 13187217.915 10 0 60932 24300.00000 0 1922679.560 -23211473.962 10439351.842 10 0 60932 25200.00000 0 2093267.993 -24307195.025 7489062.112 10 0 60932 26100.00000 0 2111514.957 -25047780.919 4393504.611 10 0 60932 27000.00000 0 2025665.923 -25404992.950 1212694.372 10 0 60932 27900.00000 0 1888436.735 -25363015.047 -1991652.855 10 0 60932 28800.00000 0 1754540.597 -24919130.980 -5157315.842 10 0 60932 29700.00000 0 1678128.877 -24083872.650 -8222776.761 10 0 60932 30600.00000 0 1710254.430 -22880631.870 -11128419.980 10 0 60932 31500.00000 0 1896465.659 -21344750.626 -13817696.893 10 0 60932 32400.00000 0 2274634.255 -19522126.829 -16238233.507 10 0 60932 33300.00000 0 2873110.023 -17467393.121 -18342858.492 10 0 60932 34200.00000 0 3709282.485 -15241744.440 -20090530.902 10 0 60932 35100.00000 0 4788611.866 -12910504.994 -21447148.808 10 0 60932 36000.00000 0 6104172.265 -10540536.352 -22386222.476 10 0 60932 36900.00000 0 7636728.061 -8197595.209 -22889398.395 10 0 60932 37800.00000 0 9355342.040 -5943751.422 -22946823.519 10 0 60932 38700.00000 0 11218491.082 -3834974.433 -22557342.220 10 0 60932 39600.00000 0 13175643.638 -1918989.063 -21728521.815 10 0 60932 40500.00000 0 15169233.506 -233490.178 -20476505.943 10 0 60932 41400.00000 0 17136947.483 1195209.441 -18825698.507 10 0 60932 42300.00000 0 19014230.919 2353042.122 -16808284.318 10 0 60932 43200.00000 0 20736905.804 3238524.095 -14463595.958 10 0 60932 44100.00000 0 22243791.101 3862557.243 -11837339.481 10 0 60932 45000.00000 0 23479214.797 4247703.869 -8980694.610 10 0 60932 45900.00000 0 24395311.704 4426966.948 -5949307.692 10 0 60932 46800.00000 0 24954010.192 4442129.412 -2802197.874 10 0 60932 47700.00000 0 25128624.304 4341724.645 399401.109 10 0 60932 48600.00000 0 24904984.600 4178725.928 3593240.050 10 0 60932 49500.00000 0 24282060.806 4008054.272 6717269.979 10 0 60932 50400.00000 0 23272050.951 3884011.407 9710850.101 10 0 60932 51300.00000 0 21899934.299 3857747.440 12515924.032 10 0 60932 52200.00000 0 20202507.902 3974870.758 15078141.462 10 0 60932 53100.00000 0 18226948.159 4273301.213 17347903.757 10 0 60932 54000.00000 0 16028958.272 4781456.933 19281314.004 10 0 60932 54900.00000 0 13670579.397 5516850.735 20841014.158 10 0 60932 55800.00000 0 11217756.684 6485154.713 21996894.393 10 0 60932 56700.00000 0 8737761.031 7679771.893 22726662.365 10 0 60932 57600.00000 0 6296572.716 9081932.832 23016262.800 10 0 60932 58500.00000 0 3956334.204 10661313.322 22860140.462 10 0 60932 59400.00000 0 1772976.189 12377148.014 22261342.344 10 0 60932 60300.00000 0 -205886.489 14179794.468 21231457.594 10 0 60932 61200.00000 0 -1942703.468 16012683.692 19790396.366 10 0 60932 62100.00000 0 -3411311.109 17814577.320 17966011.448 10 0 60932 63000.00000 0 -4597774.775 19522038.872 15793569.181 10 0 60932 63900.00000 0 -5500717.128 21072017.423 13315078.770 10 0 60932 64800.00000 0 -6131119.483 22404437.010 10578491.709 10 0 60932 65700.00000 0 -6511604.908 23464684.391 7636785.439 10 0 60932 66600.00000 0 -6675233.214 24205891.415 4546947.823 10 0 60932 67500.00000 0 -6663858.403 24590916.276 1368881.089 10 0 60932 68400.00000 0 -6526117.529 24593939.982 -1835754.255 10 0 60932 69300.00000 0 -6315135.712 24201609.974 -5004733.397 10 0 60932 70200.00000 0 -6086044.245 23413681.564 -8076476.014 10 0 60932 71100.00000 0 -5893417.009 22243128.679 -10991246.112 10 0 60932 72000.00000 0 -5788734.214 20715717.678 -13692319.082 10 0 60932 72900.00000 0 -5817981.653 18869060.611 -16127092.624 10 0 60932 73800.00000 0 -6019488.216 16751186.273 -18248119.200 10 0 60932 74700.00000 0 -6422094.509 14418687.899 -20014039.119 10 0 60932 75600.00000 0 -7043731.555 11934524.299 -21390395.417 10 0 60932 76500.00000 0 -7890471.234 9365565.918 -22350313.981 10 0 60932 77400.00000 0 -8956090.165 6779988.226 -22875035.134 10 0 60932 78300.00000 0 -10222166.914 4244621.283 -22954285.834 10 0 60932 79200.00000 0 -11658709.795 1822366.185 -22586484.874 10 0 60932 80100.00000 0 -13225289.856 -430213.658 -21778776.760 10 0 60932 81000.00000 0 -14872632.185 -2465025.915 -20546893.389 10 0 60932 81900.00000 0 -16544599.008 -4244218.541 -18914846.082 10 0 60932 82800.00000 0 -18180481.272 -5741511.376 -16914453.970 10 0 60932 83700.00000 0 -19717502.153 -6943035.269 -14584718.060 10 0 60932 84600.00000 0 -21093426.761 -7847644.836 -11971053.481 10 0 60932 85500.00000 0 -22249167.643 -8466693.291 -9124395.412 10 0 60933 0.00000 0 -23131275.808 -8823280.694 -6100197.107 10 0 60933 900.00000 0 -23694212.304 -8951009.509 -2957338.729 10 0 60933 1800.00000 0 -23902303.269 -8892301.715 243026.605 10 0 60933 2700.00000 0 -23731297.650 -8696351.247 3438671.534 10 0 60933 3600.00000 0 -23169461.047 -8416799.695 6567509.644 10 0 60933 4500.00000 0 -22218160.643 -8109235.368 9568804.295 10 0 60933 5400.00000 0 -20891917.317 -7828622.583 12384346.933 10 0 60933 6300.00000 0 -19217923.533 -7626770.565 14959581.890 10 0 60933 7200.00000 0 -17235048.049 -7549949.100 17244656.147 10 0 60933 8100.00000 0 -14992369.711 -7636751.379 19195374.447 10 0 60933 9000.00000 0 -12547301.949 -7916293.624 20774042.324 10 0 60933 9900.00000 0 -9963386.129 -8406826.618 21950182.001 10 0 60933 10800.00000 0 -7307845.150 -9114816.815 22701108.772 10 0 60933 11700.00000 0 -4648998.010 -10034535.120 23012358.098 10 0 60933 12600.00000 0 -2053641.377 -11148170.328 22877956.385 10 0 60933 13500.00000 0 415494.905 -12426462.639 22300531.112 10 0 60933 14400.00000 0 2702114.682 -13829831.346 21291258.703 10 0 60933 15300.00000 0 4758448.450 -15309950.474 19869651.181 10 0 60933 16200.00000 0 6546987.335 -16811707.792 18063185.339 10 0 60933 17100.00000 0 8041787.635 -18275466.745 15906780.803 10 0 60933 18000.00000 0 9229292.880 -19639538.124 13442135.975 10 0 60933 18900.00000 0 10108640.063 -20842759.357 10716933.438 10 0 60933 19800.00000 0 10691437.783 -21827074.375 7783928.865 10 0 60933 20700.00000 0 11001025.844 -22540006.467 4699939.880 10 0 60933 21600.00000 0 11071247.347 -22936920.433 1524753.440 10 0 60933 22500.00000 0 10944784.786 -22982978.596 -1680027.837 10 0 60933 23400.00000 0 10671130.055 -22654707.527 -4852178.358 10 0 60933 24300.00000 0 10304273.955 -21941108.296 -7930058.180 10 0 60933 25200.00000 0 9900212.847 -20844261.903 -10853813.869 10 0 60933 26100.00000 0 9514378.235 -19379402.660 -13566547.724 10 0 60933 27000.00000 0 9199098.543 -17574454.623 -16015431.978 10 0 60933 27900.00000 0 9001201.320 -15469048.796 -18152745.580 10 0 60933 28800.00000 0 8959858.359 -13113060.881 -19936812.585 10 0 60933 29700.00000 0 9104766.062 -10564729.578 -21332823.166 10 0 60933 30600.00000 0 9454739.256 -7888433.302 -22313520.642 10 0 60933 31500.00000 0 10016779.200 -5152217.672 -22859740.534 10 0 60933 32400.00000 0 10785656.356 -2425176.705 -22960790.720 10 0 60933 33300.00000 0 11744026.678 225203.135 -22614664.864 10 0 60933 34200.00000 0 12863077.392 2735625.218 -21828084.663 10 0 60933 35100.00000 0 14103675.730 5049383.701 -20616369.850 10 0 60933 36000.00000 0 15417972.576 7118483.086 -19003138.355 10 0 60933 36900.00000 0 16751393.480 8905388.221 -17019842.437 10 0 60933 37800.00000 0 18044932.950 10384332.230 -14705149.968 10 0 60933 38700.00000 0 19237654.818 11542128.648 -12104183.235 10 0 60933 39600.00000 0 20269292.660 12378455.035 -9267630.610 10 0 60933 40500.00000 0 21082839.872 12905597.887 -6250749.123 10 0 60933 41400.00000 0 21627019.530 13147671.559 -3112278.207 10 0 60933 42300.00000 0 21858529.261 13139346.215 86713.176 10 0 60933 43200.00000 0 21743966.166 12924140.641 3284022.620 10 0 60933 44100.00000 0 21261350.543 12552354.046 6417529.342 10 0 60933 45000.00000 0 20401184.441 12078726.003 9426403.842 10 0 60933 45900.00000 0 19167000.883 11559924.796 12252288.189 10 0 60933 46800.00000 0 17575381.253 11051971.219 14840423.921 10 0 60933 47700.00000 0 15655440.701 10607707.014 17140705.939 10 0 60933 48600.00000 0 13447803.603 10274414.691 19108642.673 10 0 60933 49500.00000 0 11003112.177 10091688.535 20706204.977 10 0 60933 50400.00000 0 8380130.423 10089645.670 21902548.574 10 0 60933 51300.00000 0 5643521.891 10287551.442 22674597.521 10 0 60933 52200.00000 0 2861392.755 10692915.998 23007478.802 10 0 60933 53100.00000 0 102700.949 11301099.231 22894800.875 10 0 60933 54000.00000 0 -2565362.787 12095440.319 22338771.702 10 0 60933 54900.00000 0 -5079915.257 13047906.453 21350154.542 10 0 60933 55800.00000 0 -7384739.078 14120234.077 19948062.405 10 0 60933 56700.00000 0 -9432362.969 15265515.713 18159594.790 10 0 60933 57600.00000 0 -11185779.350 16430167.081 16019322.930 10 0 60933 58500.00000 0 -12619729.211 17556193.362 13568632.431 10 0 60933 59400.00000 0 -13721501.761 18583660.883 10854934.739 10 0 60933 60300.00000 0 -14491216.171 19453271.572 7930761.370 10 0 60933 61200.00000 0 -14941573.912 20108932.798 4852757.211 10 0 60933 62100.00000 0 -15097092.093 20500214.867 1680591.382 10 0 60933 63000.00000 0 -14992849.868 20584592.557 -1524193.994 10 0 60933 63900.00000 0 -14672800.387 20329375.608 -4699375.156 10 0 60933 64800.00000 0 -14187719.235 19713245.655 -7783255.149 10 0 60933 65700.00000 0 -13592875.833 18727333.299 -10715865.657 10 0 60933 66600.00000 0 -12945526.273 17375788.095 -13440138.337 10 0 60933 67500.00000 0 -12302333.828 15675815.514 -15903022.254 10 0 60933 68400.00000 0 -11716826.778 13657177.307 -18056524.945 10 0 60933 69300.00000 0 -11237001.740 11361174.416 -19858656.054 10 0 60933 70200.00000 0 -10903174.735 8839153.472 -21274254.479 10 0 60933 71100.00000 0 -10746171.767 6150598.065 -22275682.253 10 0 60933 72000.00000 0 -10785936.381 3360883.678 -22843371.080 10 0 60933 72900.00000 0 -11030613.929 538789.391 -22966210.390 10 0 60933 73800.00000 0 -11476152.071 -2246130.181 -22641768.993 10 0 60933 74700.00000 0 -12106435.013 -4926203.217 -21876345.658 10 0 60933 75600.00000 0 -12893946.282 -7438218.538 -20684847.440 10 0 60933 76500.00000 0 -13800932.270 -9725815.501 -19090497.955 10 0 60933 77400.00000 0 -14781017.373 -11741586.361 -17124381.288 10 0 60933 78300.00000 0 -15781202.226 -13448803.720 -14824830.556 10 0 60933 79200.00000 0 -16744160.122 -14822701.503 -12236673.316 10 0 60933 80100.00000 0 -17610733.884 -15851256.858 -9410349.045 10 0 60933 81000.00000 0 -18322526.915 -16535441.613 -6400916.606 10 0 60933 81900.00000 0 -18824478.091 -16888934.441 -3266971.847 10 0 60933 82800.00000 0 -19067310.990 -16937307.840 -69497.454 10 0 60933 83700.00000 0 -19009753.411 -16716726.287 3129331.546 10 0 60933 84600.00000 0 -18620433.140 -16272212.527 6267362.490 10 0 60933 85500.00000 0 -17879369.902 -15655557.100 9283675.541 10 0 60934 0.00000 0 -16779000.883 -14922960.996 12119765.676 10 0 60934 900.00000 0 -15324696.348 -14132511.664 14720674.643 10 0 60934 1800.00000 0 -13534745.628 -13341600.524 17036047.384 10 0 60934 2700.00000 0 -11439812.483 -12604389.623 19021098.226 10 0 60934 3600.00000 0 -9081884.188 -11969434.710 20637465.304 10 0 60934 4500.00000 0 -6512757.640 -11477563.537 21853939.503 10 0 60934 5400.00000 0 -3792125.204 -11160097.560 22647054.964 10 0 60934 6300.00000 0 -985339.075 -11037490.491 23001531.167 10 0 60934 7200.00000 0 1839054.171 -11118439.727 22910559.239 10 0 60934 8100.00000 0 4611908.158 -11399507.014 22375927.918 10 0 60934 9000.00000 0 7266094.620 -11865263.716 21407987.279 10 0 60934 9900.00000 0 9739038.029 -12488954.535 20025451.007 10 0 60934 10800.00000 0 11975063.708 -13233652.173 18255040.702 10 0 60934 11700.00000 0 13927463.734 -14053855.296 16130978.302 10 0 60934 12600.00000 0 15560196.188 -14897463.715 13694335.387 10 0 60934 13500.00000 0 16849148.150 -15708048.985 10992250.689 10 0 60934 14400.00000 0 17782910.510 -16427326.061 8077029.614 10 0 60934 15300.00000 0 18363032.537 -16997722.863 5005142.000 10 0 60934 16200.00000 0 18603745.598 -17364940.064 1836136.500 10 0 60934 17100.00000 0 18531167.421 -17480393.250 -1368508.154 10 0 60934 18000.00000 0 18182020.000 -17303434.001 -4546573.109 10 0 60934 18900.00000 0 17601914.746 -16803255.255 -7636307.547 10 0 60934 19800.00000 0 16843276.906 -15960399.110 -10577631.413 10 0 60934 20700.00000 0 15962996.656 -14767801.729 -13313308.780 10 0 60934 21600.00000 0 15019906.109 -13231329.263 -15790068.451 10 0 60934 22500.00000 0 14072189.058 -11369780.098 -17959649.234 10 0 60934 23400.00000 0 13174833.323 -9214351.238 -19779748.778 10 0 60934 24300.00000 0 12377233.923 -6807589.287 -21214856.772 10 0 60934 25200.00000 0 11721048.963 -4201868.301 -22236955.637 10 0 60934 26100.00000 0 11238399.494 -1457456.910 -22826074.469 10 0 60934 27000.00000 0 10950489.987 1359745.529 -22970684.998 10 0 60934 27900.00000 0 10866708.199 4180709.872 -22667931.431 10 0 60934 28800.00000 0 10984242.827 6935911.215 -21923689.391 10 0 60934 29700.00000 0 11288235.264 9557986.329 -20752452.582 10 0 60934 30600.00000 0 11752459.031 11984303.701 -19177049.219 10 0 60934 31500.00000 0 12340497.920 14159338.988 -17228193.746 10 0 60934 32400.00000 0 13007372.555 16036756.843 -14943882.694 10 0 60934 33300.00000 0 13701545.922 17581112.529 -12368646.722 10 0 60934 34200.00000 0 14367222.179 18769102.742 -9552673.949 10 0 60934 35100.00000 0 14946840.522 19590314.293 -6550822.335 10 0 60934 36000.00000 0 15383657.611 20047440.629 -3421541.199 10 0 60934 36900.00000 0 15624308.338 20155958.792 -225723.885 10 0 60934 37800.00000 0 15621235.856 19943282.337 2974485.085 10 0 60934 38700.00000 0 15334887.539 19447427.905 6116904.229 10 0 60934 39600.00000 0 14735583.776 18715253.586 9140526.286 10 0 60934 40500.00000 0 13804980.677 17800345.057 11986702.339 10 0 60934 41400.00000 0 12537065.146 16760639.937 14600275.770 10 0 60934 42300.00000 0 10938640.719 15655891.335 16930644.249 10 0 60934 43200.00000 0 9029284.002 14545077.715 18932729.864 10 0 60934 44100.00000 0 6840773.665 13483867.795 20567839.598 10 0 60934 45000.00000 0 4416015.789 12522246.326 21804400.748 10 0 60934 45900.00000 0 1807509.992 11702399.305 22618558.471 10 0 60934 46800.00000 0 -924580.581 11056945.960 22994625.318 10 0 60934 47700.00000 0 -3714676.291 10607590.214 22925375.290 10 0 60934 48600.00000 0 -6494253.283 10364246.797 22412177.686 10 0 60934 49500.00000 0 -9194440.179 10324677.548 21464968.748 10 0 60934 50400.00000 0 -11748633.385 10474652.490 20102061.751 10 0 60934 51300.00000 0 -14095024.417 10788628.668 18349798.870 10 0 60934 52200.00000 0 -16178936.140 11230918.514 16242050.835 10 0 60934 53100.00000 0 -17954872.310 11757299.248 13819572.963 10 0 60934 54000.00000 0 -19388196.319 12316996.518 11129228.791 10 0 60934 54900.00000 0 -20456369.946 12854959.773 8223094.981 10 0 60934 55800.00000 0 -21149700.706 13314334.360 5157463.616 10 0 60934 56700.00000 0 -21471566.581 13639026.760 1991760.160 10 0 60934 57600.00000 0 -21438108.385 13776254.953 -1212602.742 10 0 60934 58500.00000 0 -21077402.247 13678976.013 -4393413.788 10 0 60934 59400.00000 0 -20428146.466 13308087.678 -7488870.884 10 0 60934 60300.00000 0 -19537917.533 12634309.703 -10438784.730 10 0 60934 61200.00000 0 -18461068.427 11639663.932 -13185754.199 10 0 60934 62100.00000 0 -17256357.650 10318488.694 -15676290.031 10 0 60934 63000.00000 0 -15984408.965 8677942.606 -17861864.276 10 0 60934 63900.00000 0 -14705109.244 6737974.376 -19699864.258 10 0 60934 64800.00000 0 -13475054.511 4530757.729 -21154431.784 10 0 60934 65700.00000 0 -12345152.352 2099613.197 -22197170.605 10 0 60934 66600.00000 0 -11358482.260 -502539.676 -22807707.766 10 0 60934 67500.00000 0 -10548504.564 -3215136.295 -22974097.434 10 0 60934 68400.00000 0 -9937693.762 -5972246.435 -22693058.956 10 0 60934 69300.00000 0 -9536654.055 -8705084.523 -21970044.150 10 0 60934 70200.00000 0 -9343754.334 -11344646.313 -20819132.341 10 0 60934 71100.00000 0 -9345297.760 -13824362.051 -19262754.974 10 0 60934 72000.00000 0 -9516218.248 -16082655.325 -17331255.189 10 0 60934 72900.00000 0 -9821273.737 -18065300.729 -15062291.034 10 0 60934 73800.00000 0 -10216684.839 -19727481.941 -12500094.216 10 0 60934 74700.00000 0 -10652148.477 -21035464.372 -9694599.347 10 0 60934 75600.00000 0 -11073140.098 -21967813.001 -6700461.315 10 0 60934 76500.00000 0 -11423405.777 -22516105.288 -3575980.741 10 0 60934 77400.00000 0 -11647537.521 -22685110.562 -381959.493 10 0 60934 78300.00000 0 -11693521.713 -22492429.955 2819490.510 10 0 60934 79200.00000 0 -11515152.031 -21967613.861 5966161.059 10 0 60934 80100.00000 0 -11074204.229 -21150795.893 8996959.563 10 0 60934 81000.00000 0 -10342280.608 -20090902.627 11853095.054 10 0 60934 81900.00000 0 -9302246.298 -18843515.941 14479215.120 10 0 60934 82800.00000 0 -7949196.962 -17468478.981 16824471.899 10 0 60934 83700.00000 0 -6290917.434 -16027346.945 18843497.119 10 0 60934 84600.00000 0 -4347812.122 -14580789.768 20497268.314 10 0 60934 85500.00000 0 -2152310.089 -13186055.144 21753850.674 10 0 60935 0.00000 0 252230.458 -11894597.318 22589001.534 10 0 60935 900.00000 0 2813074.598 -10749968.867 22986627.599 10 0 60935 1800.00000 0 5470053.203 -9786063.862 22939086.288 10 0 60935 2700.00000 0 8157820.433 -9025781.934 22447327.817 10 0 60935 3600.00000 0 10808331.011 -8480169.441 21520874.679 10 0 60935 4500.00000 0 13353437.511 -8148071.766 20177639.536 10 0 60935 5400.00000 0 15727501.524 -8016310.633 18443584.680 10 0 60935 6300.00000 0 17869912.094 -8060378.661 16352228.876 10 0 60935 7200.00000 0 19727408.220 -8245622.096 13944010.107 10 0 60935 8100.00000 0 21256110.014 -8528862.438 11265515.290 10 0 60935 9000.00000 0 22423174.658 -8860389.411 8368590.547 10 0 60935 9900.00000 0 23208008.375 -9186241.998 5309348.016 10 0 60935 10800.00000 0 23602983.713 -9450681.976 2147087.415 10 0 60935 11700.00000 0 23613631.740 -9598755.852 -1056847.568 10 0 60935 12600.00000 0 23258300.479 -9578836.941 -4240256.278 10 0 60935 13500.00000 0 22567293.225 -9345039.676 -7341288.558 10 0 60935 14400.00000 0 21581522.271 -8859403.117 -10299649.087 10 0 60935 15300.00000 0 20350734.048 -8093750.005 -13057774.649 10 0 60935 16200.00000 0 18931379.983 -7031141.047 -15561960.862 10 0 60935 17100.00000 0 17384222.455 -5666861.019 -17763415.712 10 0 60935 18000.00000 0 15771776.653 -4008892.926 -19619218.600 10 0 60935 18900.00000 0 14155696.174 -2077858.030 -21093165.520 10 0 60935 19800.00000 0 12594212.677 93577.833 -22156483.252 10 0 60935 20700.00000 0 11139737.671 2461808.627 -22788398.071 10 0 60935 21600.00000 0 9836727.646 4973858.470 -22976547.429 10 0 60935 22500.00000 0 8719902.542 7569353.514 -22717226.182 10 0 60935 23400.00000 0 7812892.588 10182813.687 -22015462.256 10 0 60935 24300.00000 0 7127370.264 12746169.078 -20884920.024 10 0 60935 25200.00000 0 6662703.508 15191396.027 -19347633.141 10 0 60935 26100.00000 0 6406144.113 17453162.774 -17433571.989 10 0 60935 27000.00000 0 6333542.405 19471373.951 -15180054.277 10 0 60935 27900.00000 0 6410556.869 21193507.451 -12631010.532 10 0 60935 28800.00000 0 6594306.258 22576645.809 -9836119.295 10 0 60935 29700.00000 0 6835392.847 23589117.276 -6849829.520 10 0 60935 30600.00000 0 7080209.733 24211678.331 -3730290.055 10 0 60935 31500.00000 0 7273433.014 24438188.853 -538208.060 10 0 60935 32400.00000 0 7360592.033 24275752.877 2664340.438 10 0 60935 33300.00000 0 7290607.777 23744320.452 5815123.741 10 0 60935 34200.00000 0 7018191.195 22875769.042 8852967.027 10 0 60935 35100.00000 0 6505999.524 21712504.720 11718940.161 10 0 60935 36000.00000 0 5726459.322 20305643.448 14357497.550 10 0 60935 36900.00000 0 4663179.344 18712850.059 16717548.095 10 0 60935 37800.00000 0 3311893.902 16995926.398 18753435.134 10 0 60935 38700.00000 0 1680897.230 15218249.964 20425808.390 10 0 60935 39600.00000 0 -209049.334 13442170.051 21702372.225 10 0 60935 40500.00000 0 -2325333.643 11726469.453 22558497.183 10 0 60935 41400.00000 0 -4624607.308 10123996.542 22977684.360 10 0 60935 42300.00000 0 -7054352.917 8679565.038 22951874.904 10 0 60935 43200.00000 0 -9554839.908 7428207.381 22481599.628 10 0 60935 44100.00000 0 -12061389.315 6393852.869 21575966.484 10 0 60935 45000.00000 0 -14506854.980 5588484.231 20252486.265 10 0 60935 45900.00000 0 -16824220.000 5011806.621 18536739.638 10 0 60935 46800.00000 0 -18949202.251 4651442.007 16461891.236 10 0 60935 47700.00000 0 -20822762.196 4483640.425 14068059.160 10 0 60935 48600.00000 0 -22393409.789 4474478.179 11401550.879 10 0 60935 49500.00000 0 -23619215.190 4581492.948 8513978.936 10 0 60935 50400.00000 0 -24469439.671 4755687.405 5461272.404 10 0 60935 51300.00000 0 -24925718.518 4943817.393 2302602.122 10 0 60935 52200.00000 0 -24982745.921 5090868.434 -900760.256 10 0 60935 53100.00000 0 -24648432.424 5142616.019 -4086627.687 10 0 60935 54000.00000 0 -23943527.392 5048161.192 -7193104.786 10 0 60935 54900.00000 0 -22900721.414 4762333.458 -10159792.880 10 0 60935 55800.00000 0 -21563265.451 4247858.291 -12928969.149 10 0 60935 56700.00000 0 -19983164.074 3477196.082 -15446716.324 10 0 60935 57600.00000 0 -18219018.195 2433972.996 -17663980.258 10 0 60935 58500.00000 0 -16333607.719 1113941.313 -19537533.979 10 0 60935 59400.00000 0 -14391315.612 -474573.391 -21030828.767 10 0 60935 60300.00000 0 -12455501.677 -2310759.168 -22114715.039 10 0 60935 61200.00000 0 -10585936.527 -4361937.061 -22768018.386 10 0 60935 62100.00000 0 -8836403.658 -6584688.645 -22977959.115 10 0 60935 63000.00000 0 -7252570.442 -8926445.921 -22740406.688 10 0 60935 63900.00000 0 -5870217.377 -11327478.011 -22059963.783 10 0 60935 64800.00000 0 -4713899.764 -13723192.203 -20949878.105 10 0 60935 65700.00000 0 -3796097.531 -16046653.415 -19431783.491 10 0 60935 66600.00000 0 -3116888.237 -18231216.699 -17535275.312 10 0 60935 67500.00000 0 -2664155.927 -20213162.487 -15297328.537 10 0 60935 68400.00000 0 -2414325.739 -21934224.014 -12761570.046 10 0 60935 69300.00000 0 -2333591.757 -23343900.762 -9977419.842 10 0 60935 70200.00000 0 -2379584.513 -24401460.911 -6999118.558 10 0 60935 71100.00000 0 -2503405.940 -25077548.895 -3884660.989 10 0 60935 72000.00000 0 -2651943.919 -25355331.036 -694657.440 10 0 60935 72900.00000 0 -2770366.875 -25231131.942 2508853.960 10 0 60935 73800.00000 0 -2804691.413 -24714535.998 5663619.920 10 0 60935 74700.00000 0 -2704313.269 -23827951.029 8708385.184 10 0 60935 75600.00000 0 -2424393.742 -22605653.911 11584082.158 10 0 60935 76500.00000 0 -1928000.363 -21092359.604 14234973.691 10 0 60935 77400.00000 0 -1187911.347 -19341374.860 16609726.968 10 0 60935 78300.00000 0 -188007.871 -17412414.887 18662398.323 10 0 60935 79200.00000 0 1075804.161 -15369174.765 20353310.871 10 0 60935 80100.00000 0 2595181.430 -13276757.081 21649809.150 10 0 60935 81000.00000 0 4349456.862 -11199062.560 22526877.619 10 0 60935 81900.00000 0 6306275.165 -9196251.416 22967612.427 10 0 60935 82800.00000 0 8422724.330 -7322379.722 22963538.616 10 0 60935 83700.00000 0 10646916.902 -5623307.520 22514767.621 10 0 60935 84600.00000 0 12919956.497 -4134963.911 21629992.647 10 0 60935 85500.00000 0 15178209.315 -2882039.661 20326322.191 99